RYR8SC EGSS-LEXJ

Flight info

Callsign RYR8SC
Flight time 1h 34m
Altitude 32000
Route NUGBO M183 SILVA Q41 SAM N63 LELNA/N0447F330 DCT ERCOZ DCT NOVAN DCT DELOG N864 SNR M190 OBETO
Aircraft B738/M-SDE2E3FGHIRWXY/LB1

Departure

Time 2026-05-05 17:40
Airport London Stansted Airport (EGSS)

Arrival

Time 2026-05-05 19:14
Airport Seve Ballesteros-Santander Airport (LEXJ)
Time Latitude Longitude Altitude Speed Heading
2026-05-05 17:13 51.89266 0.25914 348 ft 0 kts 43°
2026-05-05 17:31 51.89265 0.25914 348 ft 0 kts 43°
2026-05-05 17:31 51.89258 0.25902 347 ft 2 kts 43°
2026-05-05 17:31 51.89247 0.25886 346 ft 2 kts 43°
2026-05-05 17:32 51.89240 0.25875 346 ft 1 kts 43°
2026-05-05 17:32 51.89228 0.25866 345 ft 2 kts 353°
2026-05-05 17:32 51.89218 0.25873 345 ft 0 kts 316°
2026-05-05 17:32 51.89214 0.25881 346 ft 1 kts 311°
2026-05-05 17:33 51.89212 0.25883 346 ft 0 kts 312°
2026-05-05 17:34 51.89220 0.25870 345 ft 5 kts 314°
2026-05-05 17:35 51.89262 0.25798 344 ft 11 kts 313°
2026-05-05 17:35 51.89319 0.25701 343 ft 13 kts 313°
2026-05-05 17:35 51.89366 0.25595 343 ft 10 kts 279°
2026-05-05 17:35 51.89330 0.25502 343 ft 11 kts 224°
2026-05-05 17:36 51.89262 0.25400 341 ft 15 kts 223°
2026-05-05 17:36 51.89163 0.25253 339 ft 22 kts 224°
2026-05-05 17:36 51.89026 0.25046 334 ft 31 kts 222°
2026-05-05 17:36 51.88866 0.24804 331 ft 30 kts 222°
2026-05-05 17:37 51.88710 0.24572 329 ft 30 kts 223°
2026-05-05 17:37 51.88550 0.24336 330 ft 30 kts 223°
2026-05-05 17:37 51.88398 0.24104 331 ft 30 kts 223°
2026-05-05 17:37 51.88242 0.23870 336 ft 31 kts 223°
2026-05-05 17:38 51.88083 0.23629 340 ft 30 kts 222°
2026-05-05 17:38 51.87936 0.23409 340 ft 24 kts 223°
2026-05-05 17:38 51.87821 0.23240 340 ft 22 kts 222°
2026-05-05 17:38 51.87735 0.23086 338 ft 14 kts 255°
2026-05-05 17:39 51.87772 0.22962 338 ft 12 kts 313°
2026-05-05 17:39 51.87831 0.22863 340 ft 12 kts 314°
2026-05-05 17:39 51.87896 0.22750 340 ft 15 kts 312°
2026-05-05 17:39 51.87954 0.22664 340 ft 7 kts 21°
2026-05-05 17:40 51.87993 0.22719 340 ft 8 kts 43°
2026-05-05 17:40 51.88229 0.23073 343 ft 91 kts 43°
2026-05-05 17:40 51.88903 0.24089 415 ft 163 kts 42°
2026-05-05 17:40 51.89660 0.25234 1679 ft 147 kts 41°
2026-05-05 17:41 51.90416 0.26348 2410 ft 159 kts 41°
2026-05-05 17:41 51.91262 0.27581 3076 ft 172 kts 41°
2026-05-05 17:41 51.92181 0.28946 3681 ft 190 kts 40°
2026-05-05 17:41 51.93362 0.30019 4288 ft 209 kts 13°
2026-05-05 17:42 51.94848 0.29882 4860 ft 229 kts 345°
2026-05-05 17:42 51.96257 0.28605 4996 ft 242 kts 319°
2026-05-05 17:42 51.97131 0.26186 5358 ft 263 kts 284°
2026-05-05 17:42 51.97302 0.23387 6615 ft 254 kts 274°
2026-05-05 17:43 51.97420 0.20567 7617 ft 255 kts 278°
2026-05-05 17:43 51.97684 0.17721 8592 ft 258 kts 282°
2026-05-05 17:43 51.98012 0.14895 9497 ft 262 kts 283°
2026-05-05 17:43 51.98360 0.11948 10131 ft 278 kts 282°
2026-05-05 17:44 51.98720 0.08759 10751 ft 294 kts 281°
2026-05-05 17:44 51.98915 0.05506 11302 ft 312 kts 270°
2026-05-05 17:44 51.98649 0.01983 12017 ft 323 kts 260°
2026-05-05 17:44 51.98153 -0.01582 12924 ft 327 kts 257°
2026-05-05 17:45 51.97617 -0.05127 13798 ft 330 kts 257°
2026-05-05 17:45 51.97087 -0.08743 14707 ft 335 kts 257°
2026-05-05 17:45 51.96580 -0.12398 15500 ft 339 kts 258°
2026-05-05 17:45 51.96076 -0.16168 16309 ft 343 kts 259°
2026-05-05 17:46 51.95580 -0.19947 17139 ft 347 kts 259°
2026-05-05 17:46 51.95087 -0.23730 17916 ft 350 kts 259°
2026-05-05 17:46 51.94583 -0.27585 18730 ft 353 kts 259°
2026-05-05 17:46 51.94076 -0.31443 19567 ft 354 kts 259°
2026-05-05 17:47 51.93563 -0.35335 20297 ft 357 kts 258°
2026-05-05 17:47 51.93042 -0.39271 21067 ft 359 kts 258°
2026-05-05 17:47 51.92518 -0.43217 21735 ft 363 kts 258°
2026-05-05 17:47 51.91988 -0.47195 22468 ft 365 kts 258°
2026-05-05 17:48 51.91451 -0.51219 23154 ft 368 kts 258°
2026-05-05 17:48 51.90911 -0.55255 23786 ft 371 kts 258°
2026-05-05 17:48 51.90365 -0.59332 24426 ft 374 kts 258°
2026-05-05 17:48 51.89815 -0.63430 25098 ft 377 kts 258°
2026-05-05 17:49 51.89254 -0.67583 25713 ft 380 kts 257°
2026-05-05 17:49 51.88690 -0.71757 26281 ft 383 kts 257°
2026-05-05 17:49 51.88117 -0.75980 26834 ft 387 kts 256°
2026-05-05 17:49 51.87507 -0.80155 27451 ft 388 kts 254°
2026-05-05 17:50 51.86657 -0.84349 27946 ft 391 kts 246°
2026-05-05 17:50 51.85426 -0.88199 28553 ft 391 kts 237°
2026-05-05 17:50 51.83836 -0.91763 29021 ft 395 kts 230°
2026-05-05 17:50 51.81980 -0.95050 29536 ft 397 kts 224°
2026-05-05 17:51 51.79926 -0.97976 30004 ft 400 kts 217°
2026-05-05 17:51 51.77576 -1.00442 30495 ft 403 kts 209°
2026-05-05 17:51 51.75073 -1.02391 30964 ft 406 kts 202°
2026-05-05 17:51 51.72390 -1.03860 31377 ft 409 kts 196°
2026-05-05 17:52 51.69597 -1.04873 31742 ft 413 kts 191°
2026-05-05 17:52 51.66773 -1.05621 31953 ft 418 kts 189°
2026-05-05 17:52 51.63911 -1.06187 31956 ft 417 kts 187°
2026-05-05 17:53 51.58220 -1.07729 31954 ft 414 kts 193°
2026-05-05 17:53 51.52668 -1.10068 31952 ft 413 kts 196°
2026-05-05 17:54 51.47229 -1.13055 31951 ft 414 kts 202°
2026-05-05 17:54 51.41995 -1.16709 31947 ft 416 kts 204°
2026-05-05 17:55 51.36683 -1.20467 31945 ft 416 kts 204°
2026-05-05 17:55 51.31384 -1.24127 31943 ft 417 kts 203°
2026-05-05 17:56 51.26092 -1.27713 31942 ft 417 kts 203°
2026-05-05 17:56 51.20737 -1.31303 31938 ft 417 kts 202°
2026-05-05 17:57 51.15411 -1.34852 31941 ft 417 kts 202°
2026-05-05 17:57 51.10077 -1.38393 31941 ft 417 kts 202°
2026-05-05 17:58 51.04716 -1.41942 31939 ft 418 kts 202°
2026-05-05 17:58 50.99377 -1.45468 31938 ft 419 kts 202°
2026-05-05 17:59 50.94059 -1.48970 31939 ft 419 kts 202°
2026-05-05 17:59 50.88675 -1.52508 31938 ft 419 kts 202°
2026-05-05 18:00 50.83290 -1.56038 31939 ft 420 kts 202°
2026-05-05 18:00 50.77916 -1.59551 31940 ft 420 kts 202°
2026-05-05 18:01 50.72502 -1.63081 31939 ft 421 kts 202°
2026-05-05 18:01 50.67121 -1.66582 31939 ft 420 kts 201°
2026-05-05 18:02 50.61732 -1.70081 31941 ft 421 kts 201°
2026-05-05 18:02 50.56286 -1.73607 31935 ft 423 kts 201°
2026-05-05 18:03 50.50865 -1.77111 31943 ft 422 kts 201°
2026-05-05 18:03 50.45437 -1.80608 31951 ft 426 kts 201°
2026-05-05 18:04 50.39983 -1.84114 31951 ft 426 kts 201°
2026-05-05 18:04 50.34475 -1.87648 31952 ft 428 kts 201°
2026-05-05 18:05 50.28989 -1.91159 31954 ft 427 kts 201°
2026-05-05 18:05 50.23470 -1.94675 31953 ft 428 kts 201°
2026-05-05 18:06 50.17977 -1.98164 31952 ft 429 kts 201°
2026-05-05 18:06 50.12453 -2.01671 31949 ft 429 kts 201°
2026-05-05 18:07 50.06942 -2.05158 31950 ft 428 kts 201°
2026-05-05 18:07 50.01438 -2.08630 31949 ft 429 kts 201°
2026-05-05 18:08 49.96059 -2.12570 32014 ft 434 kts 208°
2026-05-05 18:08 49.93424 -2.14920 32451 ft 436 kts 210°
2026-05-05 18:08 49.90814 -2.17367 32826 ft 439 kts 211°
2026-05-05 18:08 49.88224 -2.19841 32938 ft 444 kts 211°
2026-05-05 18:09 49.85618 -2.22337 32946 ft 441 kts 211°
2026-05-05 18:09 49.80420 -2.27287 32951 ft 439 kts 211°
2026-05-05 18:10 49.75214 -2.32194 32954 ft 439 kts 211°
2026-05-05 18:10 49.69974 -2.37093 32954 ft 441 kts 211°
2026-05-05 18:11 49.64775 -2.41930 32953 ft 440 kts 210°
2026-05-05 18:11 49.59536 -2.46815 32952 ft 440 kts 211°
2026-05-05 18:12 49.54299 -2.51712 32951 ft 441 kts 211°
2026-05-05 18:12 49.49060 -2.56579 32950 ft 442 kts 211°
2026-05-05 18:13 49.43794 -2.61448 32953 ft 442 kts 211°
2026-05-05 18:13 49.38524 -2.66256 32952 ft 442 kts 209°
2026-05-05 18:14 49.33239 -2.71039 32952 ft 443 kts 209°
2026-05-05 18:14 49.27973 -2.75814 32951 ft 444 kts 209°
2026-05-05 18:15 49.22655 -2.80637 32953 ft 444 kts 209°
2026-05-05 18:15 49.17372 -2.85426 32949 ft 444 kts 209°
2026-05-05 18:16 49.12082 -2.90214 32954 ft 444 kts 209°
2026-05-05 18:16 49.06752 -2.95027 32948 ft 445 kts 210°
2026-05-05 18:17 49.01434 -2.99819 32944 ft 446 kts 210°
2026-05-05 18:17 48.96139 -3.04580 32946 ft 446 kts 210°
2026-05-05 18:18 48.91114 -3.09086 32944 ft 446 kts 209°
2026-05-05 18:18 48.85589 -3.14027 32945 ft 446 kts 209°
2026-05-05 18:19 48.80267 -3.18773 32943 ft 446 kts 209°
2026-05-05 18:19 48.74921 -3.23528 32946 ft 447 kts 209°
2026-05-05 18:20 48.69555 -3.28293 32947 ft 448 kts 209°
2026-05-05 18:20 48.64172 -3.33060 32946 ft 449 kts 209°
2026-05-05 18:21 48.58814 -3.37794 32942 ft 449 kts 209°
2026-05-05 18:21 48.53437 -3.42535 32941 ft 449 kts 209°
2026-05-05 18:22 48.48031 -3.47292 32938 ft 450 kts 209°
2026-05-05 18:22 48.42677 -3.51994 32938 ft 449 kts 209°
2026-05-05 18:23 48.37260 -3.56698 32936 ft 450 kts 207°
2026-05-05 18:23 48.31485 -3.60108 32935 ft 446 kts 189°
2026-05-05 18:24 48.25343 -3.60986 32937 ft 443 kts 180°
2026-05-05 18:24 48.19190 -3.61211 32936 ft 443 kts 179°
2026-05-05 18:25 48.13035 -3.61379 32935 ft 444 kts 179°
2026-05-05 18:25 48.06901 -3.61607 32931 ft 445 kts 179°
2026-05-05 18:26 48.00725 -3.61879 32931 ft 446 kts 179°
2026-05-05 18:26 47.94513 -3.62174 32933 ft 446 kts 179°
2026-05-05 18:27 47.88320 -3.62472 32938 ft 450 kts 179°
2026-05-05 18:27 47.82095 -3.62774 32939 ft 445 kts 179°
2026-05-05 18:28 47.72841 -3.63225 32949 ft 447 kts 179°
2026-05-05 18:28 47.66637 -3.63527 32953 ft 447 kts 179°
2026-05-05 18:29 47.60408 -3.63829 32951 ft 448 kts 179°
2026-05-05 18:29 47.54205 -3.64130 32948 ft 447 kts 179°
2026-05-05 18:30 47.48013 -3.64429 32948 ft 448 kts 179°
2026-05-05 18:30 47.41807 -3.64733 32945 ft 447 kts 179°
2026-05-05 18:31 47.35597 -3.65037 32948 ft 446 kts 178°
2026-05-05 18:31 47.29389 -3.65337 32931 ft 446 kts 178°
2026-05-05 18:32 47.23208 -3.65634 32942 ft 447 kts 178°
2026-05-05 18:32 47.17032 -3.65930 32943 ft 447 kts 178°
2026-05-05 18:33 47.10798 -3.66227 32931 ft 451 kts 178°
2026-05-05 18:33 47.04566 -3.66521 32935 ft 448 kts 178°
2026-05-05 18:34 46.98356 -3.66813 32926 ft 449 kts 178°
2026-05-05 18:34 46.92119 -3.67102 32941 ft 449 kts 178°
2026-05-05 18:35 46.85894 -3.67389 32936 ft 450 kts 178°
2026-05-05 18:35 46.79647 -3.67680 32922 ft 450 kts 178°
2026-05-05 18:36 46.73364 -3.67972 32938 ft 451 kts 178°
2026-05-05 18:36 46.67113 -3.68264 32932 ft 451 kts 178°
2026-05-05 18:37 46.60858 -3.68558 32926 ft 451 kts 178°
2026-05-05 18:37 46.54601 -3.68849 32926 ft 453 kts 178°
2026-05-05 18:38 46.48325 -3.69142 32921 ft 452 kts 178°
2026-05-05 18:38 46.42025 -3.69433 32938 ft 454 kts 178°
2026-05-05 18:39 46.35754 -3.69726 32945 ft 454 kts 178°
2026-05-05 18:39 46.29427 -3.70109 32938 ft 454 kts 181°
2026-05-05 18:40 46.23144 -3.70996 32949 ft 457 kts 183°
2026-05-05 18:40 46.16837 -3.72042 32935 ft 457 kts 183°
2026-05-05 18:41 46.10572 -3.73060 32937 ft 458 kts 183°
2026-05-05 18:41 46.04235 -3.74047 32936 ft 459 kts 183°
2026-05-05 18:42 45.97917 -3.75001 32939 ft 459 kts 183°
2026-05-05 18:42 45.91605 -3.75941 32943 ft 459 kts 183°
2026-05-05 18:43 45.85262 -3.76879 32952 ft 457 kts 183°
2026-05-05 18:43 45.78939 -3.77812 32954 ft 457 kts 183°
2026-05-05 18:44 45.72662 -3.78735 32944 ft 457 kts 184°
2026-05-05 18:44 45.66287 -3.79669 32947 ft 459 kts 184°
2026-05-05 18:45 45.59989 -3.80590 32942 ft 457 kts 184°
2026-05-05 18:45 45.53663 -3.81514 32951 ft 457 kts 184°
2026-05-05 18:46 45.47399 -3.82426 32943 ft 455 kts 184°
2026-05-05 18:46 45.41077 -3.83344 32949 ft 456 kts 184°
2026-05-05 18:47 45.34769 -3.84257 32934 ft 457 kts 184°
2026-05-05 18:47 45.28466 -3.85168 32953 ft 457 kts 184°
2026-05-05 18:48 45.22172 -3.86076 32950 ft 456 kts 185°
2026-05-05 18:48 45.15895 -3.86979 32953 ft 455 kts 185°
2026-05-05 18:49 45.09603 -3.87883 32950 ft 454 kts 185°
2026-05-05 18:49 45.03357 -3.88777 32953 ft 454 kts 185°
2026-05-05 18:50 44.97084 -3.89668 32959 ft 455 kts 185°
2026-05-05 18:50 44.90761 -3.90564 32965 ft 456 kts 185°
2026-05-05 18:51 44.84457 -3.91458 32968 ft 456 kts 185°
2026-05-05 18:51 44.78155 -3.92356 32962 ft 456 kts 185°
2026-05-05 18:52 44.71856 -3.93254 32971 ft 455 kts 186°
2026-05-05 18:52 44.65595 -3.94143 32962 ft 455 kts 186°
2026-05-05 18:53 44.59298 -3.95033 32973 ft 457 kts 186°
2026-05-05 18:53 44.52970 -3.95924 32968 ft 461 kts 186°
2026-05-05 18:54 44.46453 -3.96840 32853 ft 474 kts 186°
2026-05-05 18:54 44.43212 -3.97293 32447 ft 471 kts 186°
2026-05-05 18:54 44.39976 -3.97746 31831 ft 471 kts 186°
2026-05-05 18:55 44.36686 -3.98203 31100 ft 474 kts 185°
2026-05-05 18:55 44.33460 -3.98547 30562 ft 467 kts 182°
2026-05-05 18:55 44.30235 -3.98612 29638 ft 465 kts 179°
2026-05-05 18:55 44.27027 -3.98435 28895 ft 458 kts 176°
2026-05-05 18:56 44.23906 -3.98141 28109 ft 451 kts 175°
2026-05-05 18:56 44.20782 -3.97794 27282 ft 443 kts 175°
2026-05-05 18:56 44.17760 -3.97444 26570 ft 436 kts 175°
2026-05-05 18:56 44.14734 -3.97098 25907 ft 433 kts 175°
2026-05-05 18:57 44.11753 -3.96767 25248 ft 431 kts 175°
2026-05-05 18:57 44.08787 -3.96447 24608 ft 427 kts 175°
2026-05-05 18:57 44.05838 -3.96140 23957 ft 424 kts 175°
2026-05-05 18:57 44.02925 -3.95844 23311 ft 420 kts 175°
2026-05-05 18:58 44.00042 -3.95556 22690 ft 415 kts 175°
2026-05-05 18:58 43.97201 -3.95277 22075 ft 411 kts 175°
2026-05-05 18:58 43.94350 -3.94999 21450 ft 408 kts 176°
2026-05-05 18:58 43.91555 -3.94728 20844 ft 404 kts 176°
2026-05-05 18:59 43.88749 -3.94457 20225 ft 400 kts 176°
2026-05-05 18:59 43.86000 -3.94191 19630 ft 396 kts 176°
2026-05-05 18:59 43.83289 -3.93824 19016 ft 393 kts 172°
2026-05-05 18:59 43.80635 -3.92997 18417 ft 389 kts 161°
2026-05-05 19:00 43.78211 -3.91472 17834 ft 385 kts 149°
2026-05-05 19:00 43.76043 -3.89379 17246 ft 381 kts 140°
2026-05-05 19:00 43.74095 -3.86930 16644 ft 377 kts 133°
2026-05-05 19:00 43.72417 -3.84184 16059 ft 373 kts 125°
2026-05-05 19:01 43.70987 -3.81279 15477 ft 370 kts 121°
2026-05-05 19:01 43.69642 -3.78229 14881 ft 367 kts 119°
2026-05-05 19:01 43.68367 -3.75245 14301 ft 365 kts 119°
2026-05-05 19:01 43.67081 -3.72267 13713 ft 363 kts 120°
2026-05-05 19:02 43.65776 -3.69303 13127 ft 361 kts 120°
2026-05-05 19:02 43.64454 -3.66351 12542 ft 359 kts 121°
2026-05-05 19:02 43.63145 -3.63462 11960 ft 357 kts 121°
2026-05-05 19:02 43.61827 -3.60570 11382 ft 354 kts 121°
2026-05-05 19:03 43.60528 -3.57729 10864 ft 351 kts 121°
2026-05-05 19:03 43.59249 -3.54934 10550 ft 341 kts 121°
2026-05-05 19:03 43.58012 -3.52231 10416 ft 326 kts 121°
2026-05-05 19:03 43.56835 -3.49662 10289 ft 312 kts 121°
2026-05-05 19:04 43.55691 -3.47168 10159 ft 300 kts 121°
2026-05-05 19:04 43.54588 -3.44761 9848 ft 296 kts 121°
2026-05-05 19:04 43.53497 -3.42382 9434 ft 291 kts 121°
2026-05-05 19:04 43.52435 -3.40071 9088 ft 283 kts 121°
2026-05-05 19:05 43.51318 -3.37884 8728 ft 279 kts 134°
2026-05-05 19:05 43.49750 -3.36403 8404 ft 271 kts 155°
2026-05-05 19:05 43.48020 -3.35491 8130 ft 262 kts 168°
2026-05-05 19:05 43.46222 -3.35254 7814 ft 259 kts 182°
2026-05-05 19:06 43.44434 -3.35346 7439 ft 258 kts 186°
2026-05-05 19:06 43.42653 -3.35530 7120 ft 254 kts 187°
2026-05-05 19:06 43.40902 -3.35747 6815 ft 253 kts 188°
2026-05-05 19:06 43.39170 -3.36017 6500 ft 251 kts 191°
2026-05-05 19:07 43.37452 -3.36433 6168 ft 249 kts 195°
2026-05-05 19:07 43.35779 -3.36960 5846 ft 247 kts 197°
2026-05-05 19:07 43.34141 -3.37554 5638 ft 243 kts 200°
2026-05-05 19:07 43.32719 -3.38672 5557 ft 229 kts 232°
2026-05-05 19:08 43.32109 -3.40533 5503 ft 209 kts 266°
2026-05-05 19:08 43.32215 -3.42507 5440 ft 206 kts 288°
2026-05-05 19:08 43.32722 -3.44339 5343 ft 206 kts 293°
2026-05-05 19:08 43.33198 -3.46200 5053 ft 207 kts 290°
2026-05-05 19:09 43.33631 -3.48053 4824 ft 202 kts 290°
2026-05-05 19:09 43.34076 -3.49867 4622 ft 202 kts 291°
2026-05-05 19:09 43.34542 -3.51699 4342 ft 203 kts 291°
2026-05-05 19:09 43.35011 -3.53526 4075 ft 203 kts 292°
2026-05-05 19:10 43.35496 -3.55337 3809 ft 203 kts 292°
2026-05-05 19:10 43.35990 -3.57153 3536 ft 201 kts 292°
2026-05-05 19:10 43.36474 -3.58932 3275 ft 198 kts 292°
2026-05-05 19:10 43.36941 -3.60659 3154 ft 187 kts 292°
2026-05-05 19:11 43.37380 -3.62287 3170 ft 181 kts 292°
2026-05-05 19:11 43.37827 -3.63927 3019 ft 183 kts 292°
2026-05-05 19:11 43.38272 -3.65568 2634 ft 186 kts 292°
2026-05-05 19:11 43.38721 -3.67232 2246 ft 186 kts 292°
2026-05-05 19:12 43.39158 -3.68852 1871 ft 176 kts 292°
2026-05-05 19:12 43.39565 -3.70365 1632 ft 160 kts 292°
2026-05-05 19:12 43.39929 -3.71717 1397 ft 146 kts 292°
2026-05-05 19:12 43.40273 -3.72991 1217 ft 141 kts 293°
2026-05-05 19:13 43.40619 -3.74237 1026 ft 137 kts 292°
2026-05-05 19:13 43.40961 -3.75450 876 ft 135 kts 293°
2026-05-05 19:13 43.41273 -3.76669 707 ft 139 kts 290°
2026-05-05 19:13 43.41612 -3.77938 496 ft 141 kts 293°
2026-05-05 19:14 43.41955 -3.79205 269 ft 143 kts 292°
2026-05-05 19:14 43.42292 -3.80453 90 ft 136 kts 290°
2026-05-05 19:14 43.42600 -3.81606 10 ft 108 kts 290°
2026-05-05 19:14 43.42773 -3.82249 8 ft 40 kts 291°
2026-05-05 19:15 43.42835 -3.82483 8 ft 16 kts 290°
2026-05-05 19:15 43.42893 -3.82697 9 ft 34 kts 290°
2026-05-05 19:15 43.42931 -3.82965 14 ft 24 kts 244°
2026-05-05 19:15 43.42809 -3.83003 12 ft 18 kts 129°
2026-05-05 19:16 43.42762 -3.82838 10 ft 19 kts 110°
2026-05-05 19:16 43.42706 -3.82627 8 ft 26 kts 110°
2026-05-05 19:16 43.42649 -3.82416 8 ft 21 kts 109°
2026-05-05 19:16 43.42586 -3.82303 9 ft 13 kts 185°
2026-05-05 19:17 43.42503 -3.82340 12 ft 11 kts 200°
2026-05-05 19:17 43.42450 -3.82377 13 ft 2 kts 230°
2026-05-05 19:17 43.42441 -3.82394 14 ft 4 kts 233°
2026-05-05 19:17 43.42425 -3.82423 14 ft 3 kts 234°
2026-05-05 19:18 43.42419 -3.82434 14 ft 0 kts 233°
2026-05-05 19:18 43.42419 -3.82435 14 ft 0 kts 233°